ONEWEB-0086, 45456

Orbit data source: Space-Track

ONEWEB-0086, 45456 is a payload satellite owned by One Web (UK) in LEO that was launched on Sat, 21 Mar 2020 UTC via a SOYUZ-2-1B launch vehicle from the Tyuratam Missile And Space Complex (TTMTR). Payload-class satellites include a variety of spacecraft equipped with specific instruments for various scientific and technological missions. These include communications satellites like Starlink; space stations such as the ISS; scientific satellites like the Hubble; Earth observation satellites from companies like Planet Labs, Umbra, and HawkEye 360; GPS; miniature CubeSats for education and research; and military/defense satellites.

Loading next visibility...
Identifier
45456, 2020-020AJ
Orbit
LEO
Country
Flag of UKUK
Related business
Manufacturer
One Web
Mission
Operational Commercial Communications
Bus & Motor
ARROW, Unknown motor
Mass
148 kg wet, ~140 kg dry
Launch date (UTC)
2020-03-21 (6 years ago)
Launch vehicle
SOYUZ-2-1B
Launch site
Tyuratam Missile And Space Complex (TTMTR)
Object type
Payload
Rocket body
Debris
Shape & HBR
Trap Box + 2 Pan, 6.7 m
Radar Cross Section
3.464 m², Large (>1 m²)

Expand to show TLE details & history
Last TLE update: 12 hours ago

TLE from 12 hours ago
0 ONEWEB-0086
1 45456U 20020AJ  26254.67219850  .00000433  00000-0  11866-2 0  9999
2 45456  87.8975   3.8719 0002233  82.9761 277.1621 13.11417478313944
Epoch: 2026-09-11T16:07Z
TLE epoch observation values (Epoch: 2026-09-11T16:07:57.950Z)
Latitude
-0°
Longitude
131.18825°
Altitude
1,220.359 km
Speed
7.244 km/s
True Right ascension
00h 15m 29s
True Declination
0° 00' 00"
Sunlit
Object was in full shadow at epoch
Visualization orbit readout
Latitude
Unknown
Longitude
Unknown
Altitude
Unknown
Speed
Unknown
Apparent Right ascension
Unknown
Apparent Declination
Unknown
Sunlit
N/A
Visualization observer readout
Local Sidereal Time
20:05:29
Azimuth
Unknown
Elevation
Unknown
Doppler factor
Unknown
Orbital elements
Apogee altitude
1,216.494 km
Perigee altitude
1,213.103 km
Semi-major axis
7,592.936 km
Eccentricity
0.00022
Inclination
87.8975°
RAAN
3.8719°
Arg. of periapsis
82.9761°
True anomaly
277.13671°
Mean anomaly
277.1621°
Eccentric anomaly
277.14941°
Mean motion
3.28041 °/min
Orbital period
109.74 mins
BSTAR
0.0011866
Loading maneuver chart data...
Computing Atmospheric mass density...
Loading historical data...
Loading historical data...
Loading historical data...
Loading historical data...
Loading historical data...
Loading historical data...
Loading historical data...

Documentation

Showing up to 5 results
|